{"data":{"norad_id":56786,"intl_designator":"2023-078V","name":"STARLINK-6341","alt_names":[],"object_type":"PAYLOAD","status":"ACTIVE","operator":null,"country":"US","launch_date":"2023-05-31","launch_site_code":"AFWTR","launch_vehicle":null,"mission":null,"orbit_class":"UNKNOWN","rcs_meters":null,"size_class":null,"mass_kg":null,"dimensions":null,"purposes":["comms"],"wikipedia_slug":null,"has_3d_model":false,"image_url":null,"decayed_at":null,"tle_current":{"epoch":"2026-09-20T22:00:03.000096Z","epoch_age_seconds":78929,"freshness":"FRESH","line1":"1 56786U 23078V   26263.91670139  .00005089  00000+0  34350-3 0  9996","line2":"2 56786  70.0005 192.1584 0003057 227.9539 294.4135 15.07227343  5779","mean_motion":15.07227343,"eccentricity":0.0003057,"inclination_deg":70.0005,"raan_deg":192.1584,"arg_perigee_deg":227.9539,"mean_anomaly_deg":294.4135,"bstar":0.0003435,"rev_number":577,"period_min":95.539668032681,"perigee_km":542.56072652595,"apogee_km":546.79333502436,"semimajor_km":6922.8140307752,"source":"CELESTRAK","updated_at":"2026-09-21T09:00:33.488899Z"}}}